User: anonymous   Login
Location: Nitra
(0.0000°N, 18.0833°E)
Time: 23:22:41
(UTC+02:00)
Language:

ARIANE DEB (SYLDA) - Orbit

View from above orbital plane
View from above orbital plane
View from above satellite
View from above satellite

Ground track
Ground track

The orbit data is extracted from the following two-line orbital elements,

1 27833U 03028D   21104.53233979  .00000103  00000-0  19684-2 0  9999
2 27833   6.6280 106.0054 7159410 350.4302 121.4789  2.26108367147309
Epoch (UTC): 14 April 2021 12:46:34
Eccentricity: 0.7159410
inclination: 6.6280°
perigee height: 587 km
apogee height: 35697 km
right ascension of ascending node: 106.0054°
argument of perigee: 350.4302°
revolutions per day: 2.26108367
mean anomaly at epoch: 121.4789°
orbit number at epoch: 14730

The dashed part of the orbit path shows where the satellite is in the earth's shadow,  

DLR